STARLINK-1294, 45551

Orbit data source: Space-Track

STARLINK-1294, 45551 is a payload satellite owned by SpaceX/Seattle (US) in LEO that was launched on Wed, 22 Apr 2020 UTC via an FALCON 9 launch vehicle from the Air Force Eastern Test Range (AFETR). Payload-class satellites include a variety of spacecraft equipped with specific instruments for various scientific and technological missions. These include communications satellites like Starlink; space stations such as the ISS; scientific satellites like the Hubble; Earth observation satellites from companies like Planet Labs, Umbra, and HawkEye 360; GPS; miniature CubeSats for education and research; and military/defense satellites.

Loading next visibility...
Identifier
45551, 2020-025W
Orbit
LEO
Country
Flag of USUS
Related business
Manufacturer
SpaceX/Seattle
Mission
Partially operational Commercial Communications
Bus & Motor
STARLINK, Unknown motor
Mass
260 kg wet, ~248 kg dry
Launch date (UTC)
2020-04-22 (5 years ago)
Launch vehicle
FALCON 9
Launch site
Air Force Eastern Test Range (AFETR)
Object type
Payload
Rocket body
Debris
Shape & HBR
Box + 1 Pan, 10.1 m
Radar Cross Section
13.562 m², Large (>1 m²)

Expand to show TLE details & history
Last TLE update: 11 hours ago

TLE from 11 hours ago
0 STARLINK-1294
1 45551U 20025W   25287.88215321  .00057716  00000-0  78946-3 0  9996
2 45551  53.0513 340.4243 0007337 353.4856   6.6058 15.56864734303979
Epoch: 2025-10-14T21:10Z
TLE epoch observation values (Epoch: 2025-10-14T21:10:18.037Z)
Latitude
-0.00004°
Longitude
-0.81509°
Altitude
392.698 km
Speed
7.679 km/s
True Right ascension
22h 41m 41s
True Declination
0° 00' 00"
Sunlit
Object was in full shadow at epoch
Visualization orbit readout
Latitude
Unknown
Longitude
Unknown
Altitude
Unknown
Speed
Unknown
Apparent Right ascension
Unknown
Apparent Declination
Unknown
Sunlit
N/A
Visualization observer readout
Local Sidereal Time
02:20:48
Azimuth
Unknown
Elevation
Unknown
Doppler factor
Unknown
Orbital elements
Apogee altitude
401.985 km
Perigee altitude
392.044 km
Semi-major axis
6,775.152 km
Eccentricity
0.00073
Inclination
53.0513°
RAAN
340.4243°
Arg. of periapsis
353.4856°
True anomaly
6.61548°
Mean anomaly
6.6058°
Eccentric anomaly
6.61064°
Mean motion
3.89193 °/min
Orbital period
92.5 mins
BSTAR
0.00078946
Loading maneuver chart data...
Computing Atmospheric mass density...

Documentation

Showing up to 5 results
|